COSMOS 252 DEB

基本信息
目录编号:
3569
目录名称:
COSMOS 252 DEB
国际标识:
1968-097V
轨道中心:
EARTH
物体状态:
在轨
发射日期:
1968-11-01 UTC
轨道信息
数据来源: 国际轨道数据
星历时间: 2026-09-10T13:55:04+0800
半长轴: 7280.714km
偏心率: 0.0547485
轨道倾角: 62.291°
近地点辐角: 156.808°
升交点赤经: 128.331°
平近点角: 205.873°
近地点: 503.968km
远地点: 1301.186km
周期: 103.044分钟
每日圈数: 13.974678
详细信息
发射场:
TTMTR
轨道高度:
LEO
数据来源:
AOE Integration Group
参考系:
TEME
时间系统:
UTC
历元类型:
SGP4
2D轨道图
3D轨道图
轨道高度分析图
轨道倾角分析图
轨道综合分析图
查看轨道综合分析图